www.pogodaiklimat.ru

Погода и климат >> Архив погоды >> Гана >> Сефви Беквай


ПОГОДА в Сефви Беквай

  • Прогноз погоды в Сефви Беквай
  • Монитор погоды в Сефви Беквай

АРХИВ ПОГОДЫ в Сефви Беквай

Время (UTC), дата Ветер
(напр.,м/с)
 
Видим.   Явления Облачность Т
(С)
Тd
(С)
f
(%)
Тe
(С)
Тes
(С)
Комфортность P
(гПа)
Po
(гПа)
Тmin
(С)
Tmax
(С)
R
(мм)
R24
(мм)
S
(см)
06 10.07 штиль 0 10 км 9/6 330 м
[Sc Ac trans]
+23.7 +22.7 94 +31 +31 очень
душно
1015.0 995.1 +23.1
09 10.07 ЮЗ 1 12 км 9/9 360 м
[Sc]
+24.5 +22.8 90 +32 +33 очень
душно
1016.6 996.7
12 10.07 ЮВ 1 14 км 9/9 360 м
[Cu Sc]
+26.2 +23.9 87 +36 +38 очень
душно
1015.7 995.9
15 10.07 ЮЗ 1 16 км 9/5 450 м
[Cu med, cong Ac trans]
+28.5 +23.5 74 +39 +42 очень
душно
1013.3 993.7
18 10.07 ЮВ 1 14 км 8/4 360 м
[Cb cap Ac trans]
+27.6 +24.1 81 +38 +38 очень
душно
1013.8 994.2 +25.8
21 10.07 штиль 0 12 км в посл. час дождь 9/9 330 м
[Sc]
+25.5 +23.9 91 +35 +35 очень
душно
1016.0 996.2
00 11.07 ЮЗ 1 12 км {дождь} 8/6 330 м
[Sc Ac trans]
+24.0 +23.0 94 +32 +32 очень
душно
1015.5 995.6 0.7
03 11.07 СЗ 2 12 км 9/9 300 м
[Sc]
+23.7 +22.3 92 +31 +31 очень
душно
1014.4 994.5
09 11.07 З 1 14 км 9/9 330 м
[Sc]
+24.6 +22.4 88 +32 +33 очень
душно
1016.3 996.4
12 11.07 ЮЗ 1 14 км 9/9 330 м
[Cu Sc]
+26.5 +23.0 81 +35 +38 очень
душно
1014.8 995.1
15 11.07 З 1 15 км 9/8 330 м
[Cu Sc Ac trans]
+27.8 +23.9 79 +38 +40 очень
душно
1013.2 993.6
18 11.07 СЗ 1 14 км 9/0
[Ac trans Cs]
+27.8 +23.6 78 +38 +38 очень
душно
1013.1 993.5 +27.8
21 11.07 штиль 0 7000 м дымка 9/4 360 м
[Sc Ac trans Cs]
+25.5 +24.0 91 +35 +35 очень
душно
1014.5 994.7
00 12.07 штиль 0 12 км 9/9 330 м
[Sc]
+25.5 +23.9 91 +35 +35 очень
душно
1015.5 995.7
06 12.07 ЮВ 1 10 км 9/9 300 м
[Sc]
+24.0 +22.6 92 +31 +31 очень
душно
1014.8 994.9 +23.3
09 12.07 ЮЗ 1 12 км 9/6 330 м
[Sc Ac trans]
+25.4 +23.5 89 +34 +37 очень
душно
1016.4 996.6
12 12.07 ЮЗ 1 16 км 9/8 360 м
[Cu Sc Ac trans]
+28.2 +23.6 76 +38 +42 очень
душно
1014.3 994.7
15 12.07 Ю 1 12 км {дождь} 9/9 360 м
[Cu Sc]
+28.2 +24.0 78 +39 +40 очень
душно
1012.8 993.2
18 12.07 ЮЗ 1 13 км {дождь} 8/6 400 м
[Cu Sc Ac trans]
+28.0 +23.9 78 +39 +39 очень
душно
1012.0 992.4 +28.6 2
03 13.07 штиль 0 12 км 9/9 300 м
[Sc]
+24.0 +23.3 96 +32 +32 очень
душно
1013.9 994.0
09 13.07 штиль 0 6000 м 9/9 300 м
[Sc]
+25.0 +23.9 94 +34 +36 очень
душно
1016.1 996.3
12 13.07 Ю 2 13 км {дождь} 8/8 400 м
[Cu Sc]
+28.7 +24.1 76 +40 +44 очень
душно
1014.8 995.2 2
15 13.07 ЮВ 2 15 км в посл. час дождь 6/4 450 м
[Cb cap Ac trans]
+29.6 +25.2 77 +43 +49 опасность
перегрева
1012.0 992.5
21 13.07 Ю 1 12 км 6/3 330 м
[Sc Ac trans]
+25.0 +22.8 88 +33 +33 очень
душно
1014.8 995.0
00 14.07 штиль 0 12 км 9/9 330 м
[Sc]
+24.0 +22.8 93 +32 +32 очень
душно
1015.2 995.3
03 14.07 штиль 0 10 км 8/6 300 м
[Sc Ac trans]
+23.7 +22.6 94 +31 +31 очень
душно
1014.2 994.3
06 14.07 штиль 0 10 км 9/9 330 м
[Sc]
+23.6 +22.1 91 +30 +30 очень
душно
1015.0 995.1 +23.2 3
12 14.07 штиль 0 14 км 9/9 360 м
[Cu Sc]
+26.7 +23.0 80 +36 +38 очень
душно
1015.6 995.9
15 14.07 СЗ 1 16 км 5/5 450 м
[Cu med, cong]
+30.5 +22.2 61 +39 +46 очень
душно
1012.8 993.4
18 14.07 штиль 0 16 км 1/1 420 м
[Cu med, cong]
+29.0 +22.1 66 +37 +38 очень
душно
1012.2 992.7 +30.5
21 14.07 штиль 0 40 км ясно +25.4 +22.8 86 +34 +34 очень
душно
1014.1 994.3
00 15.07 штиль 0 12 км 9/0
[Ac trans]
+24.2 +22.5 90 +32 +32 очень
душно
1013.8 994.0
03 15.07 З 2 12 км 9/9 330 м
[Sc]
+23.6 +22.5 94 +31 +31 очень
душно
1012.7 992.8
06 15.07 ЮЗ 1 10 км 9/9 330 м
[Sc]
+23.5 +22.4 94 +31 +31 очень
душно
1013.6 993.7 +23.0
09 15.07 Ю 1 14 км 9/9 360 м
[Cu Sc]
+24.8 +22.3 86 +32 +33 очень
душно
1015.2 995.4
12 15.07 ЮВ 1 14 км 9/9 360 м
[Cu Sc]
+27.7 +23.0 76 +37 +40 очень
душно
1013.6 994.0
15 15.07 ЮВ 2 17 км 8/5 480 м
[Cu med, cong Ci sp]
+30.6 +23.8 67 +42 +47 опасность
перегрева
1011.0 991.6
18 15.07 штиль 0 15 км 8/6 330 м
[Cb cap Ci sp]
+28.4 +24.2 78 +40 +40 очень
душно
1010.4 990.9 +30.6
21 15.07 ЮЗ 2 13 км 9/9 330 м
[Sc]
+26.5 +23.8 85 +36 +36 очень
душно
1012.8 993.1
00 16.07 ЮЗ 1 12 км 9/6 330 м
[Sc Ac trans]
+24.5 +22.4 88 +32 +32 очень
душно
1013.7 993.9
03 16.07 штиль 0 12 км 9/9 300 м
[Sc]
+24.0 +22.3 90 +31 +31 очень
душно
1012.7 992.9
06 16.07 СЗ 2 12 км 6/6 300 м
[Sc]
+23.2 +21.8 92 +31 +31 очень
душно
1012.8 992.9 +23.0
09 16.07 ЮЗ 2 14 км 8/8 330 м
[Cu Sc Ci sp]
+26.5 +23.1 82 +36 +38 очень
душно
1014.8 995.1
12 16.07 ЮЗ 2 16 км 9/6 360 м
[Cu Sc Cs]
+29.5 +23.4 70 +40 +48 очень
душно
1014.2 994.7
15 16.07 ЮЗ 2 16 км 9/5 450 м
[Cu med, cong Ac trans Cs]
+30.4 +23.3 66 +41 +44 опасность
перегрева
1012.0 992.6
18 16.07 ЮЗ 1 15 км 6/4 450 м
[Cu med, cong Ci sp]
+28.5 +23.7 75 +39 +39 очень
душно
1012.1 992.6 +30.4
21 16.07 ЮЗ 2 12 км 9/3 360 м
[Sc Ac trans]
+26.3 +24.0 87 +36 +36 очень
душно
1014.5 994.8
00 17.07 З 1 12 км 6/3 330 м
[Sc Ac trans Ci sp]
+25.0 +22.9 88 +33 +33 очень
душно
1019.3 999.4
03 17.07 штиль 0 12 км 9/1 330 м
[Sc Ac trans]
+24.0 +22.6 92 +31 +31 очень
душно
1013.7 993.8

 

Местоположение метеостанции Сефви Беквай (Гана): широта 6.20 долгота -2.33 высота над уровнем моря 172 м.

В архиве по умолчанию представлена погода в Сефви Беквай за последнюю неделю. Архивные данные за месяц целиком и за предыдущие месяцы, начиная с января 2011 года, Вы можете получить, выбрав интересующий диапазон дат из раскрывающегося списка и нажав кнопку "Ввод!".


*Определитесь, кто Вы:
робот инопланетянин человек

Внимание! Время в таблицах - всемирное. Для получения местного времени необходимо прибавить поправку, которая равна 1 ч.

Смотрите также архив погоды в соседних городах и на ближайших метеорологических станциях:

Погода в Кумаси (Гана) (99 км)
Погода в Суняни (Гана) (126 км)
Погода в Адиаке (Кот-д'Ивуар) (147 км)
Погода в Аксиме (Гана) (148 км)
Погода в Аким Ода (Гана) (152 км)
Погода Такоради (Гана) (159 км)
Погода в Уэнчи (Гана) (174 км)
Погода в Солтпонде (Гана) (178 км)
Погода в Абетифи (Гана) (182 км)
Погода в Абиджане (Кот-д'Ивуар) (206 км)

Пояснения к столбцам:

Ветер - указаны скорость ветра в м/с - средняя за 10 мин, порывы в срок и между сроками (в фигурных скобках) и направление, откуда дует ветер: С - северный, СВ - северо-восточный, В - восточный, ЮВ - юго-восточный, Ю - южный, ЮЗ - юго-западный, З - западный, СЗ - северо-западный.
Видимость - горизонтальная дальность видимости в метрах или километрах. При видимости от 1 до 10 км при отсутствии осадков обычно наблюдается дымка, при ухудшении видимости до 1 км и менее - туман. В сухую погоду видимость может ухудшаться дымом, пылью или мглою.
Явления - указаны атмосферные явления, наблюдавшиеся в срок или в последний час перед сроком; фигурными скобками обозначены явления, наблюдавшиеся между сроками (за 1-3 часа до срока); квадратными скобками обозначены град или гололедные отложения с указанием их диаметра в мм.
Облачность - указаны через наклонную черту общая и нижняя облачность в баллах и высота нижней границы облаков в метрах; квадратными скобками обозначены формы облаков: Ci - перистые, Cs - перисто-слоистые, Cc - перисто-кучевые, Ac - высококучевые, As - высокослоистые, Sc - слоисто-кучевые, Ns - слоисто-дождевые, Cu - кучевые, Cb - кучево-дождевые. Подробнее классификацию облаков см. в Атласе облаков (PDF).
T - Температура воздуха - температура, измеренная на высоте 2 м над землей.
Td - Температура точки росы - температура, при понижении до которой содержащийся в воздухе водяной пар достигнет насыщения.
f - Относительная влажность воздуха - влажноcть воздуха, измеренная на высоте 2 м над землей.
Te - Эффективная температура - температура, которую ощущает одетый по сезону человек в тени. Характеристика душности погоды. При расчете учитывается влияние влажности воздуха и скорости ветра на теплоощущения человека.
Tes - Эффективная температура на солнце - температура, которую ощущает человек, с поправкой на солнечный нагрев. Характеристика знойности погоды. Зависит от высоты солнца над горизонтом, облачности и скорости ветра. Ночью, в пасмурную погоду, а также при ветре 12 м/с и более поправка равна нулю.
P - Атмосферное давление - приведенное к уровню моря атмосферное давление.
Po - Атмосферное давление - измеренное на уровне метеостанции атмосферное давление.
Tmin - Минимальная температура - минимум температуры воздуха на высоте 2 м над землей.
Tmax - Максимальная температура - максимум температуры воздуха на высоте 2 м над землей.
R - Количество осадков - Количество выпавших осадков за период времени, мм. При наведении курсора мыши на число - период времени, за который выпало указанное количество осадков.
R24 - Количество осадков - Количество выпавших осадков за 24 часа, мм.
S - Снежный покров - Высота снежного покрова, см. При наведении курсора мыши на число - состояние снежного покрова и степень покрытия местности в баллах.